VIR29X EDDF-EGLL

Flight info

Callsign VIR29X
Flight time 1h 9m
Altitude 40000
Route OBOKA5G/25C OBOKA Z29 TORNU DCT ABNED L980 LOGAN
Aircraft A35K/H-SDE2E3GHIJ3J4J5LM1ORWXY/LB1D1

Departure

Time 2026-05-07 17:12
Airport Frankfurt Main Airport (EDDF)

Arrival

Time 2026-05-07 18:22
Airport London Heathrow Airport (EGLL)
Time Latitude Longitude Altitude Speed Heading
2026-05-07 16:36 50.04181 8.56095 352 ft 0 kts 159°
2026-05-07 17:08 50.04162 8.56106 361 ft 6 kts 161°
2026-05-07 17:08 50.04098 8.56208 361 ft 18 kts 72°
2026-05-07 17:08 50.04160 8.56424 361 ft 20 kts 67°
2026-05-07 17:08 50.04213 8.56640 361 ft 23 kts 69°
2026-05-07 17:09 50.04275 8.56875 357 ft 22 kts 72°
2026-05-07 17:09 50.04326 8.57115 360 ft 25 kts 69°
2026-05-07 17:09 50.04389 8.57377 361 ft 27 kts 70°
2026-05-07 17:09 50.04439 8.57592 357 ft 20 kts 70°
2026-05-07 17:10 50.04491 8.57810 359 ft 23 kts 70°
2026-05-07 17:10 50.04550 8.58055 361 ft 25 kts 69°
2026-05-07 17:10 50.04614 8.58319 359 ft 25 kts 70°
2026-05-07 17:10 50.04647 8.58459 359 ft 10 kts 74°
2026-05-07 17:11 50.04629 8.58550 360 ft 10 kts 132°
2026-05-07 17:11 50.04561 8.58608 361 ft 13 kts 159°
2026-05-07 17:11 50.04486 8.58578 358 ft 13 kts 239°
2026-05-07 17:11 50.04470 8.58520 361 ft 5 kts 248°
2026-05-07 17:12 50.04354 8.58031 360 ft 89 kts 250°
2026-05-07 17:12 50.04050 8.56761 359 ft 158 kts 249°
2026-05-07 17:12 50.03636 8.54969 818 ft 179 kts 249°
2026-05-07 17:12 50.03208 8.53169 1780 ft 179 kts 251°
2026-05-07 17:13 50.02788 8.51212 2320 ft 200 kts 260°
2026-05-07 17:13 50.02748 8.48992 2939 ft 212 kts 276°
2026-05-07 17:13 50.02896 8.46658 3629 ft 222 kts 278°
2026-05-07 17:13 50.02959 8.44244 4536 ft 226 kts 267°
2026-05-07 17:14 50.02745 8.41720 5144 ft 246 kts 261°
2026-05-07 17:14 50.02426 8.39061 5879 ft 258 kts 260°
2026-05-07 17:14 50.02085 8.36303 6871 ft 261 kts 260°
2026-05-07 17:14 50.01742 8.33506 7872 ft 266 kts 260°
2026-05-07 17:15 50.01412 8.30650 8882 ft 271 kts 263°
2026-05-07 17:15 50.01434 8.27715 9893 ft 275 kts 282°
2026-05-07 17:15 50.02059 8.24860 10671 ft 289 kts 293°
2026-05-07 17:15 50.02928 8.21888 11052 ft 315 kts 295°
2026-05-07 17:16 50.03895 8.18678 11447 ft 339 kts 294°
2026-05-07 17:16 50.04903 8.15288 12152 ft 351 kts 294°
2026-05-07 17:16 50.06036 8.11905 12753 ft 354 kts 302°
2026-05-07 17:16 50.07498 8.08797 13002 ft 357 kts 307°
2026-05-07 17:17 50.09064 8.05779 13172 ft 361 kts 308°
2026-05-07 17:17 50.10664 8.02717 13902 ft 365 kts 308°
2026-05-07 17:17 50.12263 7.99637 14846 ft 367 kts 308°
2026-05-07 17:17 50.13869 7.96528 15715 ft 370 kts 308°
2026-05-07 17:18 50.15493 7.93373 16557 ft 375 kts 308°
2026-05-07 17:18 50.17133 7.90178 17378 ft 380 kts 308°
2026-05-07 17:18 50.18795 7.86933 18228 ft 385 kts 307°
2026-05-07 17:18 50.20474 7.83651 18998 ft 390 kts 307°
2026-05-07 17:19 50.22175 7.80321 19771 ft 394 kts 307°
2026-05-07 17:19 50.23899 7.77019 20531 ft 399 kts 310°
2026-05-07 17:19 50.25938 7.74039 21324 ft 405 kts 322°
2026-05-07 17:19 50.28385 7.71793 22098 ft 411 kts 333°
2026-05-07 17:20 50.31021 7.69948 22897 ft 417 kts 335°
2026-05-07 17:20 50.33698 7.68143 23641 ft 422 kts 335°
2026-05-07 17:20 50.36409 7.66307 24277 ft 426 kts 335°
2026-05-07 17:20 50.39135 7.64454 24946 ft 429 kts 335°
2026-05-07 17:21 50.41894 7.62563 25621 ft 433 kts 335°
2026-05-07 17:21 50.44630 7.60684 26256 ft 436 kts 335°
2026-05-07 17:21 50.47417 7.58765 26896 ft 439 kts 335°
2026-05-07 17:21 50.50230 7.56825 27536 ft 443 kts 335°
2026-05-07 17:22 50.53063 7.54869 28177 ft 446 kts 335°
2026-05-07 17:22 50.55866 7.52757 28784 ft 449 kts 330°
2026-05-07 17:22 50.58543 7.50197 29424 ft 452 kts 326°
2026-05-07 17:22 50.61194 7.47496 29981 ft 455 kts 326°
2026-05-07 17:23 50.63860 7.44758 30441 ft 460 kts 326°
2026-05-07 17:23 50.66558 7.41985 30847 ft 465 kts 326°
2026-05-07 17:23 50.69281 7.39182 31266 ft 469 kts 326°
2026-05-07 17:23 50.71914 7.36139 31688 ft 471 kts 319°
2026-05-07 17:24 50.74257 7.32518 32092 ft 472 kts 310°
2026-05-07 17:24 50.76210 7.28323 32477 ft 475 kts 301°
2026-05-07 17:24 50.77843 7.23788 32846 ft 477 kts 298°
2026-05-07 17:24 50.79393 7.19141 33316 ft 477 kts 296°
2026-05-07 17:25 50.80894 7.14475 33867 ft 475 kts 296°
2026-05-07 17:25 50.82378 7.09809 34325 ft 474 kts 296°
2026-05-07 17:25 50.83860 7.05143 34709 ft 474 kts 296°
2026-05-07 17:25 50.85346 7.00488 35131 ft 473 kts 296°
2026-05-07 17:26 50.86835 6.95836 35497 ft 473 kts 296°
2026-05-07 17:26 50.88330 6.91192 35840 ft 474 kts 296°
2026-05-07 17:26 50.89824 6.86612 36178 ft 475 kts 298°
2026-05-07 17:26 50.91386 6.81993 36487 ft 476 kts 298°
2026-05-07 17:27 50.92954 6.77360 36795 ft 476 kts 298°
2026-05-07 17:27 50.94503 6.72710 37100 ft 477 kts 297°
2026-05-07 17:27 50.96030 6.68041 37437 ft 477 kts 297°
2026-05-07 17:27 50.97538 6.63355 37750 ft 477 kts 297°
2026-05-07 17:28 50.99035 6.58657 38050 ft 477 kts 296°
2026-05-07 17:28 51.00521 6.53958 38309 ft 478 kts 296°
2026-05-07 17:28 51.02011 6.49230 38598 ft 478 kts 296°
2026-05-07 17:28 51.03499 6.44502 38843 ft 479 kts 296°
2026-05-07 17:29 51.04989 6.39768 39033 ft 479 kts 296°
2026-05-07 17:29 51.06480 6.35029 39254 ft 479 kts 296°
2026-05-07 17:29 51.07967 6.30291 39471 ft 479 kts 296°
2026-05-07 17:29 51.09453 6.25550 39650 ft 479 kts 296°
2026-05-07 17:30 51.10939 6.20799 39855 ft 480 kts 296°
2026-05-07 17:30 51.12426 6.16036 39997 ft 481 kts 296°
2026-05-07 17:30 51.14523 6.07868 40052 ft 479 kts 286°
2026-05-07 17:31 51.16319 5.97655 40047 ft 478 kts 284°
2026-05-07 17:31 51.17972 5.87403 40047 ft 477 kts 284°
2026-05-07 17:32 51.20187 5.77427 40048 ft 478 kts 291°
2026-05-07 17:32 51.22736 5.67591 40050 ft 480 kts 292°
2026-05-07 17:33 51.25336 5.57771 40051 ft 480 kts 292°
2026-05-07 17:33 51.27904 5.48007 40058 ft 480 kts 292°
2026-05-07 17:34 51.30477 5.38155 40062 ft 480 kts 292°
2026-05-07 17:34 51.33043 5.28273 40073 ft 480 kts 292°
2026-05-07 17:35 51.35592 5.18405 40071 ft 480 kts 292°
2026-05-07 17:35 51.38139 5.08505 40069 ft 480 kts 292°
2026-05-07 17:36 51.40673 4.98609 40072 ft 480 kts 292°
2026-05-07 17:36 51.43200 4.88699 40074 ft 480 kts 292°
2026-05-07 17:37 51.45700 4.78848 40082 ft 480 kts 292°
2026-05-07 17:37 51.48211 4.68909 40065 ft 480 kts 292°
2026-05-07 17:38 51.50715 4.58954 40070 ft 481 kts 291°
2026-05-07 17:38 51.53213 4.48984 40069 ft 481 kts 291°
2026-05-07 17:39 51.55704 4.38995 40068 ft 481 kts 291°
2026-05-07 17:39 51.58167 4.29077 40067 ft 481 kts 291°
2026-05-07 17:40 51.60636 4.19085 40078 ft 481 kts 291°
2026-05-07 17:40 51.63100 4.09070 40083 ft 481 kts 291°
2026-05-07 17:41 51.65554 3.99049 40069 ft 481 kts 291°
2026-05-07 17:41 51.67997 3.89027 40069 ft 481 kts 291°
2026-05-07 17:42 51.70436 3.78972 40076 ft 481 kts 291°
2026-05-07 17:42 51.72864 3.68928 40079 ft 481 kts 291°
2026-05-07 17:43 51.75285 3.58873 40071 ft 481 kts 291°
2026-05-07 17:43 51.77694 3.48808 40079 ft 481 kts 291°
2026-05-07 17:44 51.80095 3.38726 40086 ft 481 kts 291°
2026-05-07 17:44 51.82473 3.28695 40085 ft 481 kts 291°
2026-05-07 17:45 51.84395 3.18357 40085 ft 480 kts 279°
2026-05-07 17:45 51.84554 3.07614 40078 ft 478 kts 266°
2026-05-07 17:46 51.83935 2.96949 40075 ft 476 kts 264°
2026-05-07 17:46 51.83193 2.86313 40081 ft 475 kts 264°
2026-05-07 17:47 51.82450 2.75680 40079 ft 475 kts 264°
2026-05-07 17:47 51.81731 2.65179 39655 ft 469 kts 264°
2026-05-07 17:48 51.81377 2.59916 38849 ft 473 kts 264°
2026-05-07 17:48 51.81011 2.54591 37856 ft 476 kts 264°
2026-05-07 17:48 51.80643 2.49265 36956 ft 477 kts 264°
2026-05-07 17:48 51.80273 2.43942 36231 ft 475 kts 264°
2026-05-07 17:49 51.79905 2.38647 35545 ft 472 kts 264°
2026-05-07 17:49 51.79536 2.33392 34823 ft 470 kts 264°
2026-05-07 17:49 51.79163 2.28144 34034 ft 469 kts 264°
2026-05-07 17:49 51.78787 2.22918 33133 ft 468 kts 264°
2026-05-07 17:50 51.78419 2.17700 32332 ft 465 kts 264°
2026-05-07 17:50 51.78086 2.12580 31522 ft 464 kts 265°
2026-05-07 17:50 51.77758 2.07332 30685 ft 463 kts 265°
2026-05-07 17:50 51.77443 2.02230 29804 ft 463 kts 265°
2026-05-07 17:51 51.77128 1.97110 29217 ft 454 kts 265°
2026-05-07 17:51 51.76821 1.92083 28675 ft 446 kts 265°
2026-05-07 17:51 51.76519 1.87138 28088 ft 439 kts 265°
2026-05-07 17:51 51.76221 1.82280 27731 ft 428 kts 265°
2026-05-07 17:52 51.75932 1.77570 27453 ft 416 kts 265°
2026-05-07 17:52 51.75649 1.72979 27198 ft 404 kts 265°
2026-05-07 17:52 51.75373 1.68525 26948 ft 393 kts 265°
2026-05-07 17:52 51.75102 1.64185 26520 ft 384 kts 265°
2026-05-07 17:53 51.74833 1.59935 25779 ft 380 kts 265°
2026-05-07 17:53 51.74564 1.55695 25271 ft 377 kts 265°
2026-05-07 17:53 51.74295 1.51527 25100 ft 370 kts 265°
2026-05-07 17:53 51.74029 1.47401 25042 ft 367 kts 265°
2026-05-07 17:54 51.73766 1.43327 24530 ft 366 kts 265°
2026-05-07 17:54 51.73500 1.39242 23835 ft 363 kts 265°
2026-05-07 17:54 51.73235 1.35215 22871 ft 359 kts 265°
2026-05-07 17:54 51.72969 1.31187 22278 ft 361 kts 265°
2026-05-07 17:55 51.72706 1.27196 22085 ft 356 kts 265°
2026-05-07 17:55 51.72443 1.23219 22072 ft 356 kts 265°
2026-05-07 17:55 51.72182 1.19268 21712 ft 352 kts 265°
2026-05-07 17:55 51.71923 1.15386 20969 ft 351 kts 265°
2026-05-07 17:56 51.71658 1.11480 19918 ft 349 kts 264°
2026-05-07 17:56 51.71392 1.07576 18884 ft 348 kts 264°
2026-05-07 17:56 51.71129 1.03716 17895 ft 345 kts 264°
2026-05-07 17:56 51.70868 0.99894 16874 ft 341 kts 264°
2026-05-07 17:57 51.70610 0.96147 16185 ft 331 kts 264°
2026-05-07 17:57 51.70442 0.93701 15879 ft 332 kts 264°
2026-05-07 17:57 51.70106 0.88751 15400 ft 330 kts 263°
2026-05-07 17:57 51.69854 0.85132 14960 ft 327 kts 263°
2026-05-07 17:58 51.69599 0.81503 14516 ft 324 kts 263°
2026-05-07 17:58 51.69347 0.77955 14305 ft 313 kts 263°
2026-05-07 17:58 51.69104 0.74532 14065 ft 303 kts 263°
2026-05-07 17:58 51.68863 0.71175 13501 ft 298 kts 263°
2026-05-07 17:59 51.68623 0.67866 12994 ft 297 kts 262°
2026-05-07 17:59 51.68380 0.64543 12641 ft 298 kts 263°
2026-05-07 17:59 51.68143 0.61242 12254 ft 294 kts 262°
2026-05-07 17:59 51.67907 0.57979 12019 ft 294 kts 263°
2026-05-07 18:00 51.67672 0.54718 11766 ft 292 kts 263°
2026-05-07 18:00 51.67443 0.51542 11320 ft 284 kts 263°
2026-05-07 18:00 51.67207 0.48353 11048 ft 287 kts 263°
2026-05-07 18:00 51.66980 0.45187 10585 ft 283 kts 263°
2026-05-07 18:01 51.66747 0.42032 10194 ft 282 kts 263°
2026-05-07 18:01 51.66514 0.38890 10078 ft 282 kts 263°
2026-05-07 18:01 51.66282 0.35757 10064 ft 282 kts 263°
2026-05-07 18:01 51.66049 0.32618 10064 ft 282 kts 263°
2026-05-07 18:02 51.65582 0.26400 10065 ft 281 kts 262°
2026-05-07 18:02 51.65339 0.23289 10021 ft 278 kts 263°
2026-05-07 18:02 51.65111 0.20212 9577 ft 276 kts 263°
2026-05-07 18:03 51.64881 0.17144 9158 ft 276 kts 263°
2026-05-07 18:03 51.64652 0.14066 9072 ft 277 kts 263°
2026-05-07 18:03 51.64472 0.10971 9069 ft 277 kts 265°
2026-05-07 18:03 51.64316 0.07876 9069 ft 277 kts 265°
2026-05-07 18:04 51.64155 0.04785 9066 ft 276 kts 265°
2026-05-07 18:04 51.63990 0.01697 9070 ft 276 kts 264°
2026-05-07 18:04 51.63822 -0.01383 9045 ft 276 kts 265°
2026-05-07 18:04 51.63649 -0.04470 9044 ft 278 kts 265°
2026-05-07 18:05 51.63489 -0.07323 9045 ft 279 kts 265°
2026-05-07 18:05 51.63316 -0.10391 8998 ft 268 kts 265°
2026-05-07 18:05 51.63150 -0.13271 8702 ft 250 kts 265°
2026-05-07 18:05 51.62986 -0.16021 8159 ft 245 kts 265°
2026-05-07 18:06 51.62825 -0.18712 7571 ft 243 kts 265°
2026-05-07 18:06 51.62687 -0.21027 7208 ft 243 kts 265°
2026-05-07 18:06 51.62529 -0.23734 7064 ft 243 kts 265°
2026-05-07 18:06 51.62373 -0.26434 7043 ft 242 kts 265°
2026-05-07 18:07 51.62217 -0.29130 7048 ft 242 kts 266°
2026-05-07 18:07 51.62061 -0.31822 7042 ft 242 kts 265°
2026-05-07 18:07 51.61903 -0.34515 7051 ft 242 kts 265°
2026-05-07 18:07 51.61746 -0.37178 7052 ft 242 kts 266°
2026-05-07 18:08 51.61587 -0.39873 7048 ft 242 kts 266°
2026-05-07 18:08 51.61428 -0.42563 7045 ft 242 kts 265°
2026-05-07 18:08 51.61269 -0.45252 7048 ft 242 kts 265°
2026-05-07 18:08 51.61107 -0.47948 7042 ft 242 kts 265°
2026-05-07 18:09 51.60947 -0.50641 7052 ft 242 kts 265°
2026-05-07 18:09 51.60784 -0.53330 7051 ft 242 kts 265°
2026-05-07 18:09 51.60621 -0.56020 7041 ft 242 kts 265°
2026-05-07 18:09 51.60458 -0.58712 7044 ft 242 kts 265°
2026-05-07 18:10 51.60293 -0.61407 7052 ft 242 kts 265°
2026-05-07 18:10 51.60129 -0.64094 7039 ft 242 kts 265°
2026-05-07 18:10 51.59968 -0.66787 7048 ft 242 kts 265°
2026-05-07 18:10 51.59805 -0.69444 7030 ft 241 kts 265°
2026-05-07 18:11 51.59604 -0.72106 6676 ft 240 kts 260°
2026-05-07 18:11 51.59389 -0.73892 6383 ft 242 kts 262°
2026-05-07 18:11 51.59015 -0.77386 6018 ft 234 kts 262°
2026-05-07 18:11 51.58750 -0.79905 5875 ft 223 kts 262°
2026-05-07 18:12 51.58499 -0.82272 5812 ft 206 kts 262°
2026-05-07 18:12 51.58261 -0.84491 5606 ft 198 kts 262°
2026-05-07 18:12 51.58030 -0.86667 5277 ft 196 kts 262°
2026-05-07 18:12 51.57799 -0.88826 4966 ft 195 kts 262°
2026-05-07 18:13 51.57588 -0.90809 4621 ft 193 kts 262°
2026-05-07 18:13 51.57316 -0.92882 4194 ft 192 kts 252°
2026-05-07 18:13 51.56494 -0.94516 3987 ft 191 kts 214°
2026-05-07 18:13 51.55226 -0.95142 3975 ft 192 kts 187°
2026-05-07 18:14 51.53903 -0.95240 3971 ft 190 kts 182°
2026-05-07 18:14 51.52586 -0.95265 3967 ft 189 kts 182°
2026-05-07 18:14 51.51276 -0.95282 3970 ft 188 kts 181°
2026-05-07 18:14 51.49962 -0.95256 3958 ft 189 kts 176°
2026-05-07 18:15 51.48764 -0.94420 3963 ft 191 kts 141°
2026-05-07 18:15 51.48025 -0.92712 3985 ft 190 kts 114°
2026-05-07 18:15 51.47699 -0.90673 3985 ft 189 kts 100°
2026-05-07 18:15 51.47615 -0.88579 3986 ft 188 kts 93°
2026-05-07 18:16 51.47610 -0.86521 3979 ft 177 kts 92°
2026-05-07 18:16 51.47608 -0.84591 3989 ft 167 kts 92°
2026-05-07 18:16 51.47603 -0.82742 3988 ft 165 kts 92°
2026-05-07 18:16 51.47599 -0.80916 3987 ft 166 kts 92°
2026-05-07 18:17 51.47607 -0.79057 3911 ft 167 kts 91°
2026-05-07 18:17 51.47638 -0.77204 3706 ft 165 kts 91°
2026-05-07 18:17 51.47646 -0.75360 3463 ft 165 kts 92°
2026-05-07 18:17 51.47647 -0.73518 3217 ft 165 kts 92°
2026-05-07 18:18 51.47654 -0.71674 2985 ft 165 kts 92°
2026-05-07 18:18 51.47661 -0.69835 2760 ft 165 kts 92°
2026-05-07 18:18 51.47667 -0.67995 2529 ft 165 kts 93°
2026-05-07 18:18 51.47671 -0.66775 2384 ft 165 kts 93°
2026-05-07 18:19 51.47679 -0.64934 2147 ft 165 kts 94°
2026-05-07 18:19 51.47684 -0.63094 1924 ft 165 kts 93°
2026-05-07 18:19 51.47691 -0.61254 1698 ft 165 kts 94°
2026-05-07 18:19 51.47697 -0.59413 1474 ft 165 kts 93°
2026-05-07 18:20 51.47706 -0.57607 1252 ft 158 kts 94°
2026-05-07 18:20 51.47716 -0.55906 1041 ft 147 kts 95°
2026-05-07 18:20 51.47722 -0.54313 838 ft 138 kts 95°
2026-05-07 18:20 51.47727 -0.52808 656 ft 133 kts 94°
2026-05-07 18:21 51.47726 -0.51322 490 ft 135 kts 96°
2026-05-07 18:21 51.47751 -0.49835 260 ft 133 kts 94°
2026-05-07 18:21 51.47758 -0.48370 123 ft 130 kts 93°
2026-05-07 18:21 51.47753 -0.47002 97 ft 108 kts 92°
2026-05-07 18:22 51.47759 -0.46081 96 ft 57 kts 89°
2026-05-07 18:22 51.47760 -0.45775 91 ft 29 kts 90°
2026-05-07 18:22 51.47697 -0.45481 95 ft 18 kts 169°
2026-05-07 18:22 51.47611 -0.45434 96 ft 8 kts 127°
2026-05-07 18:23 51.47608 -0.45424 94 ft 0 kts 117°
2026-05-07 18:23 51.47607 -0.45423 92 ft 1 kts 117°
2026-05-07 18:24 51.47600 -0.45402 96 ft 4 kts 117°
2026-05-07 18:24 51.47584 -0.45352 96 ft 7 kts 118°
2026-05-07 18:24 51.47577 -0.45297 97 ft 4 kts 83°
2026-05-07 18:24 51.47580 -0.45250 97 ft 4 kts 86°
2026-05-07 18:25 51.47566 -0.45195 96 ft 7 kts 128°
2026-05-07 18:25 51.47528 -0.45207 96 ft 7 kts 219°
2026-05-07 18:25 51.47512 -0.45297 96 ft 11 kts 268°
2026-05-07 18:25 51.47508 -0.45479 94 ft 20 kts 268°
2026-05-07 18:26 51.47510 -0.45711 95 ft 20 kts 275°
2026-05-07 18:26 51.47518 -0.45954 91 ft 24 kts 271°
2026-05-07 18:26 51.47515 -0.46234 91 ft 26 kts 269°
2026-05-07 18:26 51.47515 -0.46520 93 ft 20 kts 270°
2026-05-07 18:27 51.47514 -0.46646 94 ft 12 kts 268°
2026-05-07 18:27 51.47473 -0.46745 94 ft 10 kts 192°
2026-05-07 18:27 51.47395 -0.46735 94 ft 13 kts 172°
2026-05-07 18:27 51.47294 -0.46725 91 ft 16 kts 179°
2026-05-07 18:28 51.47174 -0.46728 91 ft 18 kts 181°
2026-05-07 18:28 51.47051 -0.46712 94 ft 15 kts 159°
2026-05-07 18:28 51.46951 -0.46616 95 ft 18 kts 147°
2026-05-07 18:28 51.46843 -0.46498 95 ft 17 kts 146°
2026-05-07 18:29 51.46816 -0.46422 96 ft 6 kts 78°
2026-05-07 18:29 51.46840 -0.46370 96 ft 7 kts 56°
2026-05-07 18:29 51.46847 -0.46353 96 ft 0 kts 56°